| time (UTC) | temp F | wind direction | speed MPH | gust MPH | rain 1hr in | rain 24hr in | rain mn in | humidity % | barometer mb |
| 20260831081537 | 71 | 127 | 0.0 | 0.0 | 0.00 | 0.00 | 0.00 | 91 | 1006.9 |
| 20260831080035 | 71 | 127 | 0.0 | 0.0 | 0.00 | 0.00 | 0.00 | 91 | 1007.0 |
| 20260831074534 | 71 | 141 | 0.0 | 1.0 | 0.00 | 0.00 | 0.00 | 90 | 1007.1 |
| 20260831073033 | 71 | 137 | 0.0 | 0.0 | 0.00 | 0.00 | 0.00 | 90 | 1007.2 |
| 20260831071531 | 71 | 135 | 0.0 | 4.0 | 0.00 | 0.00 | 0.00 | 89 | 1007.2 |
| 20260831070036 | 72 | 105 | 0.0 | 0.0 | 0.00 | 0.00 | 0.00 | 89 | 1007.5 |
| 20260831064526 | 72 | 138 | 0.0 | 0.0 | 0.00 | 0.00 | 0.00 | 88 | 1007.7 |
| 20260831063024 | 72 | 117 | 0.0 | 0.0 | 0.00 | 0.00 | 0.00 | 88 | 1007.8 |
| 20260831061522 | 73 | 151 | 0.0 | 0.0 | 0.00 | 0.00 | 0.00 | 87 | 1008.0 |
| 20260831060020 | 73 | 82 | 0.0 | 1.0 | 0.00 | 0.00 | 0.00 | 87 | 1008.0 |
| 20260831054518 | 73 | 108 | 0.0 | 2.0 | 0.00 | 0.00 | 0.00 | 86 | 1008.1 |
| 20260831053016 | 73 | 101 | 0.0 | 5.0 | 0.00 | 0.00 | 0.00 | 86 | 1008.3 |
| 20260831051523 | 74 | 123 | 0.0 | 0.0 | 0.00 | 0.00 | 0.00 | 85 | 1008.5 |
| 20260831050012 | 74 | 64 | 0.0 | 4.0 | 0.00 | 0.00 | 0.00 | 84 | 1008.8 |
| 20260831044511 | 74 | 128 | 0.0 | 1.0 | 0.00 | 0.00 | 0.00 | 83 | 1008.8 |
| 20260831043009 | 75 | 140 | 0.0 | 4.0 | 0.00 | 0.00 | 0.00 | 83 | 1008.9 |
| 20260831041517 | 75 | 152 | 0.0 | 10.0 | 0.00 | 0.00 | 0.00 | 82 | 1008.9 |
| 20260831040009 | 75 | 85 | 0.0 | 0.0 | 0.00 | 0.00 | 0.00 | 82 | 1008.8 |
| 20260831034508 | 75 | 271 | 0.0 | 0.0 | 0.00 | 0.00 | 0.00 | 81 | 1008.8 |
| 20260831033007 | 76 | 257 | 0.0 | 2.0 | 0.00 | 0.00 | 0.00 | 80 | 1008.8 |
| 20260831031507 | 76 | 217 | 0.0 | 2.0 | 0.00 | 0.00 | 0.00 | 79 | 1008.7 |
| 20260831030006 | 77 | 221 | 0.0 | 8.0 | 0.00 | 0.00 | 0.00 | 78 | 1008.5 |
| 20260831024507 | 77 | 274 | 0.0 | 4.0 | 0.00 | 0.00 | 0.00 | 77 | 1008.6 |
| 20260831023005 | 78 | 171 | 0.0 | 8.0 | 0.00 | 0.00 | 0.00 | 74 | 1008.7 |
| 20260831021504 | 79 | 209 | 0.0 | 7.0 | 0.00 | 0.00 | 0.00 | 72 | 1008.6 |
| 20260831020004 | 79 | 167 | 0.0 | 9.0 | 0.00 | 0.00 | 0.00 | 73 | 1008.6 |
| 20260831014504 | 79 | 216 | 0.0 | 0.0 | 0.00 | 0.00 | 0.00 | 77 | 1008.6 |
| 20260831013003 | 79 | 84 | 0.0 | 0.0 | 0.00 | 0.00 | 0.00 | 79 | 1008.2 |
| 20260831011502 | 79 | 109 | 0.0 | 0.0 | 0.00 | 0.00 | 0.00 | 80 | 1008.1 |
| 20260831010004 | 80 | 93 | 0.0 | 2.0 | 0.00 | 0.00 | 0.00 | 79 | 1008.1 |
| 20260831004502 | 80 | 95 | 0.0 | 9.0 | 0.00 | 0.00 | 0.00 | 78 | 1008.0 |
| 20260831003102 | 81 | 162 | 0.0 | 5.0 | 0.00 | 0.00 | 0.00 | 77 | 1008.0 |
| 20260831003002 | 81 | 101 | 0.0 | 5.0 | 0.00 | 0.00 | 0.00 | 77 | 1008.0 |
| 20260831001600 | 82 | 84 | 0.0 | 8.0 | 0.00 | 0.00 | 0.00 | 75 | 1007.9 |
| 20260831000100 | 82 | 82 | 2.0 | 13.0 | 0.00 | 0.00 | 0.00 | 73 | 1007.9 |
| 20260830234608 | 83 | 108 | 0.0 | 7.0 | 0.00 | 0.00 | 0.00 | 72 | 1008.1 |
| 20260830233058 | 83 | 127 | 0.0 | 5.0 | 0.00 | 0.00 | 0.00 | 72 | 1007.9 |
| 20260830231558 | 84 | 108 | 0.0 | 6.0 | 0.00 | 0.00 | 0.00 | 71 | 1008.1 |
| 20260830230057 | 84 | 153 | 0.0 | 10.0 | 0.00 | 0.00 | 0.00 | 70 | 1008.0 |
| 20260830224557 | 84 | 205 | 0.0 | 8.0 | 0.00 | 0.00 | 0.00 | 70 | 1008.0 |
| 20260830223056 | 84 | 105 | 2.0 | 12.0 | 0.00 | 0.00 | 0.00 | 70 | 1007.8 |
| 20260830221553 | 84 | 142 | 1.0 | 10.0 | 0.00 | 0.00 | 0.00 | 69 | 1007.9 |
| 20260830220052 | 84 | 84 | 0.0 | 11.0 | 0.00 | 0.00 | 0.00 | 70 | 1008.1 |
| 20260830214550 | 84 | 95 | 0.0 | 13.0 | 0.00 | 0.00 | 0.00 | 70 | 1008.1 |
| 20260830213047 | 83 | 110 | 0.0 | 5.0 | 0.00 | 0.00 | 0.00 | 72 | 1008.4 |
| 20260830211545 | 82 | 77 | 0.0 | 16.0 | 0.00 | 0.00 | 0.00 | 72 | 1008.5 |
| 20260830210044 | 82 | 174 | 0.0 | 8.0 | 0.00 | 0.00 | 0.00 | 73 | 1008.5 |
| 20260830204543 | 82 | 170 | 2.0 | 12.0 | 0.00 | 0.00 | 0.00 | 73 | 1008.7 |
| 20260830203052 | 81 | 60 | 0.0 | 12.0 | 0.00 | 0.00 | 0.00 | 73 | 1008.9 |
| 20260830201547 | 81 | 89 | 3.0 | 12.0 | 0.00 | 0.00 | 0.00 | 73 | 1008.6 |
| 20260830200037 | 81 | 102 | 4.0 | 14.0 | 0.00 | 0.00 | 0.00 | 74 | 1008.4 |
| 20260830194535 | 81 | 105 | 1.0 | 11.0 | 0.00 | 0.00 | 0.00 | 75 | 1008.7 |
| 20260830193031 | 80 | 88 | 0.0 | 10.0 | 0.00 | 0.00 | 0.00 | 76 | 1008.9 |
| 20260830191529 | 79 | 46 | 3.0 | 11.0 | 0.00 | 0.00 | 0.00 | 77 | 1009.6 |
| 20260830190033 | 78 | 72 | 0.0 | 11.0 | 0.00 | 0.00 | 0.00 | 79 | 1009.6 |
| 20260830184523 | 77 | 108 | 0.0 | 10.0 | 0.00 | 0.00 | 0.00 | 80 | 1009.4 |
| 20260830183021 | 77 | 30 | 0.0 | 8.0 | 0.00 | 0.00 | 0.00 | 81 | 1009.3 |
| 20260830181521 | 77 | 72 | 0.0 | 0.0 | 0.00 | 0.00 | 0.00 | 81 | 1009.9 |
| 20260830180020 | 77 | 81 | 0.0 | 3.0 | 0.00 | 0.00 | 0.00 | 81 | 1010.3 |
| 20260830174518 | 76 | 79 | 0.0 | 7.0 | 0.00 | 0.00 | 0.00 | 82 | 1010.2 |
| 20260830173016 | 76 | 51 | 0.0 | 2.0 | 0.00 | 0.00 | 0.00 | 82 | 1010.2 |
| 20260830171516 | 76 | 79 | 0.0 | 0.0 | 0.00 | 0.00 | 0.00 | 82 | 1010.2 |
| 20260830170014 | 75 | 116 | 0.0 | 6.0 | 0.00 | 0.00 | 0.00 | 83 | 1010.1 |
| 20260830164526 | 75 | 76 | 2.0 | 12.0 | 0.00 | 0.00 | 0.00 | 84 | 1009.9 |
| 20260830163010 | 74 | 64 | 0.0 | 6.0 | 0.00 | 0.00 | 0.00 | 86 | 1009.8 |
| 20260830161509 | 74 | 92 | 0.0 | 0.0 | 0.00 | 0.00 | 0.00 | 84 | 1009.8 |
| 20260830160014 | 74 | 63 | 0.0 | 13.0 | 0.00 | 0.00 | 0.00 | 84 | 1009.8 |
| 20260830154508 | 74 | 83 | 2.0 | 11.0 | 0.00 | 0.00 | 0.00 | 83 | 1009.8 |
| 20260830153005 | 73 | 83 | 0.0 | 9.0 | 0.00 | 0.00 | 0.00 | 85 | 1009.8 |
| 20260830151502 | 73 | 89 | 0.0 | 10.0 | 0.00 | 0.00 | 0.00 | 86 | 1009.3 |
| 20260830150100 | 72 | 86 | 0.0 | 5.0 | 0.00 | 0.00 | 0.00 | 87 | 1009.9 |
| 20260830144603 | 71 | 84 | 0.0 | 5.0 | 0.00 | 0.01 | 0.00 | 88 | 1009.6 |
| 20260830143100 | 70 | 101 | 0.0 | 7.0 | 0.00 | 0.01 | 0.00 | 90 | 1009.8 |
| 20260830141553 | 69 | 32 | 0.0 | 10.0 | 0.00 | 0.01 | 0.00 | 90 | 1009.9 |
| 20260830140049 | 68 | 68 | 2.0 | 7.0 | 0.00 | 0.13 | 0.00 | 92 | 1009.8 |
| 20260830134549 | 68 | 79 | 4.0 | 7.0 | 0.00 | 0.13 | 0.00 | 93 | 1009.7 |
| 20260830133119 | 67 | 16 | 0.0 | 7.0 | 0.00 | 0.13 | 0.00 | 93 | 1009.9 |
| 20260830131600 | 67 | 85 | 1.0 | 7.0 | 0.00 | 0.13 | 0.00 | 93 | 1009.8 |
| 20260830130047 | 67 | 89 | 0.0 | 0.0 | 0.00 | 0.25 | 0.00 | 94 | 1010.0 |
| 20260830124605 | 66 | 92 | 0.0 | 0.0 | 0.00 | 0.25 | 0.00 | 94 | 1010.2 |
| 20260830123051 | 66 | 84 | 0.0 | 0.0 | 0.00 | 0.25 | 0.00 | 94 | 1009.7 |
| 20260830121545 | 66 | 75 | 0.0 | 0.0 | 0.00 | 0.25 | 0.00 | 94 | 1009.9 |
| 20260830120049 | 66 | 44 | 0.0 | 2.0 | 0.00 | 0.32 | 0.00 | 95 | 1009.5 |
| 20260830114546 | 66 | 67 | 0.0 | 0.0 | 0.00 | 0.32 | 0.00 | 95 | 1009.4 |
| 20260830113044 | 66 | 97 | 0.0 | 0.0 | 0.00 | 0.32 | 0.00 | 94 | 1009.5 |
| 20260830111543 | 66 | 60 | 0.0 | 0.0 | 0.00 | 0.32 | 0.00 | 94 | 1009.4 |
| 20260830110045 | 66 | 99 | 0.0 | 0.0 | 0.00 | 0.33 | 0.00 | 94 | 1009.7 |
| 20260830104541 | 66 | 117 | 0.0 | 0.0 | 0.00 | 0.33 | 0.00 | 94 | 1010.0 |
| 20260830103040 | 66 | 120 | 0.0 | 4.0 | 0.00 | 0.33 | 0.00 | 94 | 1009.7 |
| 20260830101539 | 66 | 130 | 0.0 | 0.0 | 0.00 | 0.33 | 0.00 | 93 | 1009.4 |
| 20260830100038 | 66 | 89 | 0.0 | 0.0 | 0.00 | 0.35 | 0.00 | 93 | 1009.2 |
| 20260830094536 | 66 | 91 | 0.0 | 0.0 | 0.00 | 0.35 | 0.00 | 93 | 1009.3 |
| 20260830093040 | 67 | 87 | 0.0 | 0.0 | 0.00 | 0.35 | 0.00 | 93 | 1009.3 |
| 20260830091535 | 67 | 89 | 0.0 | 0.0 | 0.00 | 0.35 | 0.00 | 93 | 1009.4 |
| 20260830090041 | 67 | 111 | 0.0 | 0.0 | 0.00 | 0.39 | 0.00 | 93 | 1009.4 |
| 20260830084532 | 67 | 89 | 0.0 | 0.0 | 0.00 | 0.39 | 0.00 | 93 | 1009.5 |
| 20260830083055 | 67 | 107 | 0.0 | 0.0 | 0.00 | 0.39 | 0.00 | 93 | 1009.7 |